Regional Weather Roundup
Issued by NWS Tiyan, Guam

Home | Current Version | Previous Version | Text Only | Print | Product List | Glossary On
Versions: 1 2 3 4 5 6 7 8 9 10 11 12 13 14 15 16 17 18 19 20 21 22 23 24 25 26 27 28 29 30 31 32 33 34 35 36 37 38 39 40 41 42 43 44 45 46 47 48 49 50
000
ASGM40 PGUM 170812
RWRGUM
WEATHER ROUNDUP FOR THE MARIANAS
NATIONAL WEATHER SERVICE TIYAN GU
600 PM CHST TUE OCT 17 2017

GUZ001>004-170900-
MARIANA ISLANDS-

CITY           SKY/WX    TMP DP  RH WIND       PRES   REMARKS
GUAM AIRPORT   CLOUDY    81  77  89 W6        29.69R
ANDERSEN AFB   NOT AVBL
ROTA AIRPORT   CLOUDY    77  75  94 S8        29.69R
TINIAN AP      LGT RAIN  81  77  89 SE8       29.67R
SAIPAN AP      LGT RAIN  81  79  94 SE15      29.68R

$$




USA.gov is the U.S. government's official web portal to all federal, state and local government web resources and services.